User: anonymous   Login
Location: Unspecified
(0.0000°N, 0.0000°E)
Time: 15:22:46
(UTC+00:00)
Language:

SES 6 - Orbit

View from above orbital plane
View from above orbital plane
View from above satellite
View from above satellite

Ground track
Ground track

The orbit data is extracted from the following two-line orbital elements,

1 39172U 13026A   16343.40923536 -.00000256  00000-0  00000+0 0  9996
2 39172   0.0277 322.6139 0001982 288.5091 293.3214  1.00270023 12854
Epoch (UTC): 08 December 2016 09:49:17
Eccentricity: 0.0001982
inclination: 0.0277°
perigee height: 35778 km
apogee height: 35795 km
right ascension of ascending node: 322.6139°
argument of perigee: 288.5091°
revolutions per day: 1.00270023
mean anomaly at epoch: 293.3214°
orbit number at epoch: 1285

The dashed part of the orbit path shows where the satellite is in the earth's shadow,  

DLR